When you browse on this site, cookies collect data to enhance your experience and personalize the content and advertising you see.
Visit our Privacy Policy to learn more. By continuing to use the site, you agree to this use of cookies and data.
  • In Switzerland
  • List of Countries
  • For 7 days
  • Water Temperature
  • Satellite Maps
  • Weather Map
  • Weather Widgets
  • user-avatar
    Login

    Hourly Weather Port-au-Princ

    Today, 22 July, Monday

    Time Temperature Precipitation Wind Pressure Humidity
    00:00 +26°C° 0 mm 1 mps 736 mmHg 82%
    01:00 +25°C° 0 mm 1 mps 735 mmHg 82%
    02:00 +25°C° 0 mm 1 mps 735 mmHg 82%
    03:00 +25°C° 0 mm 1 mps 735 mmHg 83%
    04:00 +25°C° 0 mm 1 mps 735 mmHg 83%
    05:00 +26°C° 0 mm 1 mps 735 mmHg 81%
    06:00 +26°C° 0 mm 1 mps 736 mmHg 79%
    07:00 +27°C° 0 mm 1 mps 736 mmHg 78%
    08:00 +28°C° 0 mm 1 mps 736 mmHg 72%
    09:00 +29°C° 0 mm 1 mps 737 mmHg 66%
    10:00 +31°C° 0 mm 2 mps 737 mmHg 60%
    11:00 +31°C° 0.3 mm 2 mps 736 mmHg 58%
    12:00 +32°C° 0.3 mm 2 mps 736 mmHg 56%
    13:00 +34°C° 0.3 mm 2 mps 736 mmHg 55%
    14:00 +32°C° 0.7 mm 2 mps 736 mmHg 58%
    15:00 +31°C° 0.7 mm 3 mps 735 mmHg 62%
    16:00 +31°C° 0.7 mm 3 mps 735 mmHg 66%
    17:00 +29°C° 0.9 mm 2 mps 735 mmHg 72%
    18:00 +28°C° 0.9 mm 1 mps 735 mmHg 77%
    19:00 +27°C° 0.9 mm 1 mps 735 mmHg 82%
    20:00 +27°C° 0.2 mm 1 mps 736 mmHg 82%
    21:00 +26°C° 0.2 mm 1 mps 736 mmHg 83%
    22:00 +26°C° 0.2 mm 1 mps 737 mmHg 83%
    23:00 +26°C° 0 mm 1 mps 736 mmHg 84%

    Tomorrow, 23 July, Tuesday

    Time Temperature Precipitation Wind Pressure Humidity
    00:00 +25°C° 0 mm 1 mps 736 mmHg 84%
    01:00 +25°C° 0 mm 1 mps 736 mmHg 85%
    02:00 +25°C° 0 mm 1 mps 736 mmHg 85%
    03:00 +25°C° 0 mm 1 mps 736 mmHg 86%
    04:00 +25°C° 0 mm 1 mps 736 mmHg 86%
    05:00 +25°C° 0 mm 1 mps 736 mmHg 84%
    06:00 +26°C° 0 mm 1 mps 736 mmHg 82%
    07:00 +26°C° 0 mm 1 mps 737 mmHg 80%
    08:00 +28°C° 0 mm 1 mps 737 mmHg 73%
    09:00 +29°C° 0 mm 1 mps 737 mmHg 65%
    10:00 +31°C° 0 mm 1 mps 737 mmHg 58%
    11:00 +31°C° 0.1 mm 1 mps 737 mmHg 57%
    12:00 +32°C° 0.1 mm 2 mps 737 mmHg 56%
    13:00 +34°C° 0.1 mm 2 mps 737 mmHg 55%
    14:00 +32°C° 1.4 mm 2 mps 736 mmHg 59%
    15:00 +31°C° 1.4 mm 2 mps 736 mmHg 62%
    16:00 +31°C° 1.4 mm 2 mps 736 mmHg 66%
    17:00 +30°C° 1.1 mm 1 mps 736 mmHg 71%
    18:00 +29°C° 1.1 mm 1 mps 736 mmHg 76%
    19:00 +26°C° 1.1 mm 0 mps 736 mmHg 80%
    20:00 +27°C° 0.2 mm 1 mps 737 mmHg 81%
    21:00 +27°C° 0.2 mm 1 mps 737 mmHg 81%
    22:00 +27°C° 0.2 mm 1 mps 738 mmHg 81%
    23:00 +26°C° 0 mm 1 mps 737 mmHg 82%

    Day after tomorrow, 24 July, Wednesday

    Time Temperature Precipitation Wind Pressure Humidity
    00:00 +26°C° 0 mm 1 mps 737 mmHg 82%
    01:00 +26°C° 0 mm 1 mps 737 mmHg 82%
    02:00 +26°C° 0 mm 1 mps 736 mmHg 83%
    03:00 +25°C° 0 mm 1 mps 736 mmHg 83%
    04:00 +25°C° 0 mm 1 mps 736 mmHg 84%
    05:00 +26°C° 0 mm 1 mps 737 mmHg 82%
    06:00 +27°C° 0 mm 2 mps 737 mmHg 81%
    07:00 +27°C° 0 mm 2 mps 737 mmHg 79%
    08:00 +29°C° 0 mm 2 mps 738 mmHg 73%
    09:00 +30°C° 0 mm 2 mps 738 mmHg 68%
    10:00 +31°C° 0 mm 2 mps 738 mmHg 62%
    11:00 +32°C° 0.1 mm 2 mps 738 mmHg 59%
    12:00 +34°C° 0.1 mm 2 mps 737 mmHg 55%
    13:00 +35°C° 0.1 mm 2 mps 737 mmHg 52%
    14:00 +34°C° 0.3 mm 2 mps 736 mmHg 56%
    15:00 +34°C° 0.3 mm 2 mps 736 mmHg 59%
    16:00 +33°C° 0.3 mm 3 mps 736 mmHg 63%
    17:00 +31°C° 0.4 mm 2 mps 736 mmHg 69%
    18:00 +29°C° 0.4 mm 1 mps 736 mmHg 76%
    19:00 +28°C° 0.4 mm 1 mps 736 mmHg 83%
    20:00 +28°C° 0.2 mm 1 mps 737 mmHg 82%
    21:00 +27°C° 0.2 mm 1 mps 737 mmHg 82%
    22:00 +27°C° 0.2 mm 1 mps 738 mmHg 82%
    23:00 +27°C° 0 mm 1 mps 737 mmHg 82%

    25 July, Thursday

    Time Temperature Precipitation Wind Pressure Humidity
    00:00 +26°C° 0 mm 1 mps 737 mmHg 82%
    01:00 +26°C° 0 mm 1 mps 736 mmHg 82%
    02:00 +26°C° 0 mm 1 mps 736 mmHg 83%
    03:00 +25°C° 0 mm 1 mps 736 mmHg 83%
    04:00 +25°C° 0 mm 1 mps 736 mmHg 83%
    05:00 +26°C° 0 mm 1 mps 736 mmHg 81%
    06:00 +27°C° 0 mm 1 mps 737 mmHg 79%
    07:00 +27°C° 0 mm 1 mps 737 mmHg 78%
    08:00 +29°C° 0 mm 1 mps 737 mmHg 71%
    09:00 +30°C° 0 mm 1 mps 737 mmHg 65%
    10:00 +31°C° 0 mm 2 mps 738 mmHg 59%
    11:00 +32°C° 0 mm 2 mps 737 mmHg 56%
    12:00 +34°C° 0 mm 2 mps 737 mmHg 53%
    13:00 +34°C° 0 mm 3 mps 737 mmHg 50%
    14:00 +34°C° 0.1 mm 2 mps 736 mmHg 54%
    15:00 +32°C° 0.1 mm 2 mps 736 mmHg 57%
    16:00 +32°C° 0.1 mm 2 mps 735 mmHg 61%
    17:00 +30°C° 0.3 mm 2 mps 735 mmHg 68%
    18:00 +29°C° 0.3 mm 1 mps 736 mmHg 75%
    19:00 +28°C° 0.3 mm 1 mps 736 mmHg 83%
    20:00 +27°C° 0.1 mm 1 mps 736 mmHg 83%
    21:00 +27°C° 0.1 mm 1 mps 737 mmHg 83%
    22:00 +27°C° 0.1 mm 1 mps 737 mmHg 83%
    23:00 +26°C° 0 mm 1 mps 737 mmHg 83%

    26 July, Friday

    Time Temperature Precipitation Wind Pressure Humidity
    00:00 +26°C° 0 mm 1 mps 736 mmHg 83%
    01:00 +26°C° 0 mm 2 mps 736 mmHg 83%
    02:00 +25°C° 0.1 mm 2 mps 736 mmHg 83%
    03:00 +25°C° 0.1 mm 2 mps 736 mmHg 82%
    04:00 +25°C° 0.1 mm 2 mps 736 mmHg 82%
    05:00 +26°C° 0 mm 2 mps 736 mmHg 80%
    06:00 +26°C° 0 mm 2 mps 737 mmHg 78%
    07:00 +27°C° 0 mm 2 mps 737 mmHg 76%
    08:00 +28°C° 0 mm 3 mps 738 mmHg 70%
    09:00 +30°C° 0 mm 3 mps 738 mmHg 63%
    10:00 +33°C° 0 mm 3 mps 738 mmHg 56%
    11:00 +33°C° 0.1 mm 3 mps 738 mmHg 54%
    12:00 +34°C° 0.1 mm 2 mps 738 mmHg 52%
    13:00 +35°C° 0.1 mm 2 mps 737 mmHg 50%
    14:00 +34°C° 0.5 mm 2 mps 737 mmHg 53%
    15:00 +34°C° 0.5 mm 2 mps 737 mmHg 57%
    16:00 +32°C° 0.5 mm 2 mps 736 mmHg 60%
    17:00 +31°C° 0.1 mm 2 mps 737 mmHg 65%
    18:00 +29°C° 0.1 mm 1 mps 737 mmHg 70%
    19:00 +28°C° 0.1 mm 1 mps 737 mmHg 75%
    20:00 +28°C° 0 mm 1 mps 738 mmHg 77%
    21:00 +27°C° 0 mm 2 mps 738 mmHg 79%
    22:00 +27°C° 0 mm 2 mps 738 mmHg 81%
    23:00 +26°C° 0 mm 2 mps 738 mmHg 82%

    27 July, Saturday

    Time Temperature Precipitation Wind Pressure Humidity
    00:00 +26°C° 0 mm 2 mps 738 mmHg 82%
    01:00 +26°C° 0 mm 2 mps 738 mmHg 82%
    02:00 +25°C° 0 mm 2 mps 738 mmHg 82%
    03:00 +25°C° 0 mm 2 mps 737 mmHg 82%
    04:00 +25°C° 0 mm 2 mps 737 mmHg 82%
    05:00 +26°C° 0 mm 2 mps 738 mmHg 80%
    06:00 +27°C° 0 mm 2 mps 738 mmHg 78%
    07:00 +27°C° 0 mm 2 mps 738 mmHg 77%
    08:00 +29°C° 0 mm 2 mps 739 mmHg 70%
    09:00 +30°C° 0 mm 2 mps 739 mmHg 64%
    10:00 +32°C° 0 mm 2 mps 739 mmHg 57%
    11:00 +34°C° 0 mm 2 mps 739 mmHg 55%
    12:00 +34°C° 0 mm 2 mps 738 mmHg 53%
    13:00 +35°C° 0 mm 2 mps 738 mmHg 51%
    14:00 +34°C° 0.9 mm 2 mps 737 mmHg 57%
    15:00 +32°C° 0.9 mm 2 mps 737 mmHg 62%
    16:00 +31°C° 0.9 mm 3 mps 736 mmHg 67%
    17:00 +29°C° 2 mm 2 mps 737 mmHg 70%
    18:00 +28°C° 2 mm 2 mps 737 mmHg 72%
    19:00 +26°C° 2 mm 1 mps 737 mmHg 75%
    20:00 +26°C° 0.1 mm 1 mps 738 mmHg 74%
    21:00 +26°C° 0.1 mm 1 mps 738 mmHg 73%
    22:00 +26°C° 0.1 mm 1 mps 738 mmHg 72%
    23:00 +26°C° 0 mm 1 mps 738 mmHg 73%
    Show more